User: anonymous   Login
Location: Kelshall
(52.0000°N, 0.0500°W)
Time: 17:53:35
(UTC+00:00)
Language:

Cosmos 1655 Rocket - Orbit

View from above orbital plane
View from above orbital plane
View from above satellite
View from above satellite

Ground track
Ground track

The orbit data is extracted from the following two-line orbital elements,

1 15752U 85041B   20330.84344433 +.00000006 +00000-0 -93507-5 0  9995
2 15752 082.9489 098.8369 0023318 230.6853 129.2235 13.73112759778206
Epoch (UTC): 25 November 2020 20:14:33
Eccentricity: 0.0023318
inclination: 82.9489°
perigee height: 971 km
apogee height: 1005 km
right ascension of ascending node: 98.8369°
argument of perigee: 230.6853°
revolutions per day: 13.73112759
mean anomaly at epoch: 129.2235°
orbit number at epoch: 77820

The dashed part of the orbit path shows where the satellite is in the earth's shadow,  

DLR